Regional Weather Roundup
Issued by NWS Columbia, SC

Current Version | Previous Version | Graphics & Text | Print | Product List | Glossary On
Versions: 1 2 3 4 5 6 7 8 9 10 11 12 13 14 15 16 17 18 19 20 21 22 23 24 25 26 27 28 29 30 31 32 33 34 35 36 37 38 39 40 41 42 43 44 45 46 47 48 49 50
000
ASUS42 KCAE 040710
RWRCAE
REGIONAL WEATHER ROUNDUP
NATIONAL WEATHER SERVICE COLUMBIA SC
300 AM EDT SAT APR 04 2020

NOTE: "FAIR" INDICATES FEW OR NO CLOUDS BELOW 12,000 FEET WITH NO
SIGNIFICANT WEATHER AND/OR OBSTRUCTIONS TO VISIBILITY.

NOT ALL STATIONS ARE QUALITY CONTROLLED BY THE NATIONAL
WEATHER SERVICE. USE DATA WITH CAUTION...ESPECIALLY
DEWPOINT OBSERVATIONS.

SCZ001>056-GAZ040-063>065-077-040800-
...UPSTATE SOUTH CAROLINA...

CITY           SKY/WX    TMP DP  RH WIND       PRES   REMARKS
ANDERSON       FAIR      55  42  61 CALM      29.93F
LIBERTY        FAIR      53  45  76 NE5       29.93S
SPARTANBURG    MOCLDY    55  34  44 NW3       29.94S
CLEMSON        FAIR      60  37  42 CALM      29.94F
GREENVILLE     FAIR      62  32  32 N9        29.94F
GREENWOOD      FAIR      53  45  74 CALM      29.94F
GREER          CLOUDY    56  34  43 CALM      29.94F
ROCK HILL      FAIR      49  37  63 CALM      29.95S
CHESTER        FAIR      50  36  57 N6        29.95S
LAURENS        FAIR      52  41  66 CALM      29.93F


...CENTRAL SOUTH CAROLINA...

CITY           SKY/WX    TMP DP  RH WIND       PRES   REMARKS
COLUMBIA APT   FAIR      52  45  77 CALM      29.92S
COLUMBIA OWENS FAIR      53  48  83 CALM      29.93S
MCENTIRE ANGB  MOCLDY    52  45  77 CALM      29.92S
ORANGEBURG     FAIR      51  48  89 W3        29.91F
SUMTER SHAW    FAIR      56  42  59 NE3       29.91F
NEWBERRY       FAIR      59  41  51 CALM      29.96S
AIKEN          FAIR      52  44  75 NE5       29.94S
BARNWELL       FAIR      50  46  87 CALM      29.92S
MANNING        FAIR      52  45  76 CALM      29.92S
CAMDEN         FAIR      52  41  66 CALM      29.93S
LANCASTER      FAIR      48  45  87 CALM      29.94S
WINNSBORO      FAIR      59  37  44 N5        29.93S


...EASTERN AND COASTAL SOUTH CAROLINA...

CITY           SKY/WX    TMP DP  RH WIND       PRES   REMARKS
MYRTLE BEACH   FAIR      50  45  83 NW5       29.90F
N MYRTLE BCH   FAIR      52  44  74 N5        29.89F
CONWAY         FAIR      43  43 100 CALM      29.91S
MARION         FAIR      45  45 100 CALM      29.91F
HARTSVILLE     FAIR      59  34  38 N5        29.93S
FLORENCE       FAIR      53  39  59 N3        29.92F
DARLINGTON     FAIR      49  41  74 NW6       29.93F
CHARLESTON APT FAIR      59  46  62 W5        29.90F
MOUNT PLEASANT FAIR      54  52  94 CALM      29.89F
WALTERBORO     FAIR      52  46  82 CALM      29.92S
BEAUFORT         N/A     56  51  84 SW3       29.91F
HILTON HEAD    FAIR      57  54  88 VRB5      29.92F


...EASTERN GEORGIA...

CITY           SKY/WX    TMP DP  RH WIND       PRES   REMARKS
AUGUSTA BUSH F FAIR      51  49  92 CALM      29.91F
AUGUSTA DANIEL FAIR      62  44  51 SW3       29.92F
THOMSON        FAIR      51  49  96 CALM      29.92S
WASHINGTON     FAIR      54  45  71 CALM      29.93R
CLAXTON        FAIR      51  50  95 CALM      29.94S
SYLVANIA       FAIR      52  49  91 CALM      29.93S
STATESBORO     FAIR      51  49  92 CALM      29.93S
SAVANNAH       FAIR      55  51  86 CALM      29.93S


...SOUTHERN NORTH CAROLINA...

CITY           SKY/WX    TMP DP  RH WIND       PRES   REMARKS
CHARLOTTE      FAIR      48  36  63 NW5       29.94F
MONROE         FAIR      49  37  63 SW3       29.94S
WADESBORO      FAIR      44  37  77 CALM      29.93F
ROCKINGHAM     FAIR      46  34  63 NW3       29.93S
RUTHERFORDTON  MOCLDY    50  36  57 CALM      29.96S
ASHEVILLE      FAIR      51  32  48 N3        30.00S

$$



USA.gov is the U.S. government's official web portal to all federal, state and local government web resources and services.